Frederick, MD

1:10 PM EDT on June 26, 2017 (GMT -0400)
Frederick Municipal

Weather History for KFDK - January, 2014

Change the Weather History Date:

Thursday, January 30, 2014

  Actual Average (KHGR) Record (KHGR)
Temperature  
Mean Temperature 17 °F -  
Max Temperature 33 °F 36 °F 67 °F (2013)
Min Temperature 1 °F 22 °F 6 °F (2014)
Degree Days  
Heating Degree Days 48    
Moisture  
Dew Point 6 °F    
Average Humidity 64    
Maximum Humidity 100    
Minimum Humidity 35    
Precipitation  
Precipitation 0.00 in - - ()
Sea Level Pressure  
Sea Level Pressure 30.36 in    
Wind  
Wind Speed 3 mph (South)    
Max Wind Speed 9 mph    
Max Gust Speed -    
Visibility 10 miles    
Events      
Averages and records for this station are not official NWS values.
T = Trace of Precipitation, MM = Missing Value Source: NWS Daily Summary

Daily Weather History Graph

Daily Weather History Graph

Search for Another Location

Airport or City:

Trip Planner

Search our weather history database for the weather conditions in past years. The results will help you decide how hot, cold, wet, or windy it might be!

Date:

Astronomy

Jan. 30, 2014 Rise Set
Actual Time 7:18 AM EST 5:27 PM EST
Civil Twilight 6:50 AM EST 5:55 PM EST
Nautical Twilight 6:17 AM EST 6:28 PM EST
Astronomical Twilight 5:46 AM EST 6:59 PM EST
Moon 6:43 AM EST (1/30) 5:36 PM EST (1/30)
Length of Visible Light 11h 05m
Length of Day
10h 08m
Waning Crescent, 0% of the Moon is Illuminated
Jan 30
Waning Crescent
Jan 30
New
Feb 6
First Quarter
Feb 14
Full
Feb 22
Last Quarter

Hourly Weather History & Observations

Time (EST) Temp. Windchill Dew Point Humidity Pressure Visibility Wind Dir Wind Speed Gust Speed Precip Events Conditions
12:00 AM 15.8 °F - -0.4 °F 49% 30.38 in 10.0 mi Calm Calm - N/A   Clear
12:20 AM 17.6 °F 8.2 °F -0.4 °F 45% 30.38 in 10.0 mi West 6.9 mph - N/A   Clear
12:40 AM 15.8 °F 8.6 °F 1.4 °F 53% 30.39 in 10.0 mi SE 4.6 mph - N/A   Clear
1:00 AM 17.6 °F 10.7 °F 1.4 °F 49% 30.40 in 10.0 mi South 4.6 mph - N/A   Clear
1:20 AM 14.0 °F 2.0 °F 1.4 °F 57% 30.41 in 10.0 mi SSW 9.2 mph - N/A   Clear
1:40 AM 14.0 °F 2.0 °F 1.4 °F 57% 30.41 in 10.0 mi SW 9.2 mph - N/A   Clear
2:00 AM 15.8 °F 5.1 °F 1.4 °F 53% 30.41 in 10.0 mi WSW 8.1 mph - N/A   Clear
2:20 AM 14.0 °F 5.1 °F 1.4 °F 57% 30.42 in 10.0 mi SSW 5.8 mph - N/A   Clear
2:40 AM 12.2 °F 4.3 °F 1.4 °F 62% 30.42 in 10.0 mi SW 4.6 mph - N/A   Clear
3:00 AM 12.2 °F 2.9 °F 1.4 °F 62% 30.42 in 10.0 mi WSW 5.8 mph - N/A   Clear
3:20 AM 12.2 °F 6.1 °F 3.2 °F 67% 30.43 in 10.0 mi SE 3.5 mph - N/A   Clear
3:40 AM 10.4 °F 4.0 °F 5.0 °F 79% 30.44 in 10.0 mi SE 3.5 mph - N/A   Clear
4:00 AM 6.8 °F - 1.4 °F 79% 30.43 in 10.0 mi Calm Calm - N/A   Clear
4:20 AM 8.6 °F - 5.0 °F 85% 30.43 in 10.0 mi Calm Calm - N/A   Clear
4:40 AM 5.0 °F -2.1 °F 5.0 °F 100% 30.44 in 10.0 mi SE 3.5 mph - N/A   Clear
5:00 AM 5.0 °F -2.1 °F 3.2 °F 92% 30.45 in 10.0 mi SSE 3.5 mph - N/A   Clear
5:20 AM 6.8 °F - 5.0 °F 92% 30.45 in 10.0 mi Calm Calm - N/A   Clear
5:35 AM 6.8 °F - 5.0 °F 92% 30.45 in 10.0 mi Calm Calm - N/A   Clear
6:45 AM 1.4 °F - 1.4 °F 100% 30.46 in 10.0 mi Calm Calm - N/A   Clear
7:55 AM 1.4 °F - 1.4 °F 100% 30.48 in 10.0 mi Calm Calm - N/A   Clear
8:45 AM 8.6 °F - 3.2 °F 79% 30.48 in 10.0 mi Calm Calm - N/A   Clear
9:45 AM 14.0 °F - 3.2 °F 62% 30.49 in 10.0 mi Calm Calm - N/A   Clear
10:50 AM 21.2 °F - 5.0 °F 50% 30.47 in 10.0 mi Calm Calm - N/A   Clear
11:55 AM 24.8 °F - 6.8 °F 46% 30.44 in 10.0 mi Calm Calm - N/A   Clear
12:45 PM 28.4 °F - 6.8 °F 40% 30.40 in 10.0 mi North - - N/A   Clear
1:45 PM 33.8 °F 28.6 °F 8.6 °F 35% 30.37 in 10.0 mi South 5.8 mph - N/A   Clear
2:59 PM 32.0 °F 24.8 °F 8.6 °F 38% 30.34 in 10.0 mi SSW 8.1 mph - N/A   Clear
3:50 PM 32.0 °F 25.6 °F 8.6 °F 38% 30.31 in 10.0 mi South 6.9 mph - N/A   Clear
4:55 PM 30.2 °F 25.4 °F 6.8 °F 37% 30.29 in 10.0 mi South 4.6 mph - N/A   Clear
5:50 PM 26.6 °F 21.2 °F 6.8 °F 43% 30.28 in 10.0 mi South 4.6 mph - N/A   Clear
6:58 PM 21.2 °F - 8.6 °F 58% 30.26 in 10.0 mi Calm Calm - N/A   Clear
8:00 PM 23.0 °F - 10.4 °F 59% 30.26 in 10.0 mi Calm Calm - N/A   Clear
8:20 PM 21.2 °F - 10.4 °F 63% 30.26 in 10.0 mi Calm Calm - N/A   Clear
8:40 PM 19.4 °F - 8.6 °F 63% 30.27 in 10.0 mi Calm Calm - N/A   Clear
9:00 PM 23.0 °F - 10.4 °F 59% 30.25 in 10.0 mi Calm Calm - N/A   Clear
9:20 PM 21.2 °F 16.4 °F 10.4 °F 63% 30.26 in 10.0 mi SSW 3.5 mph - N/A   Clear
9:40 PM 19.4 °F 14.3 °F 12.2 °F 74% 30.25 in 10.0 mi SE 3.5 mph - N/A   Clear
10:00 PM 21.2 °F - 12.2 °F 68% 30.25 in 10.0 mi Calm Calm - N/A   Clear
10:20 PM 21.2 °F - 12.2 °F 68% 30.22 in 10.0 mi Calm Calm - N/A   Clear
10:40 PM 21.2 °F 16.4 °F 14.0 °F 74% 30.22 in 10.0 mi SSW 3.5 mph - N/A   Clear
11:00 PM 23.0 °F 18.4 °F 12.2 °F 63% 30.20 in 10.0 mi South 3.5 mph - N/A   Clear
11:20 PM 21.2 °F 16.4 °F 12.2 °F 68% 30.21 in 10.0 mi SW 3.5 mph - N/A   Clear
11:40 PM 23.0 °F - 14.0 °F 68% 30.21 in 10.0 mi Calm Calm - N/A   Clear